Time,TemperatureF,DewpointF,PressureIn,WindDirection,WindDirectionDegrees,WindSpeedMPH,WindSpeedGustMPH,Humidity,HourlyPrecipIn,Conditions,Clouds,dailyrainin,SoftwareType,DateUTC
2013-01-18 00:00:00,60.3,59.1,29.85,North,0,0.0,0.0,96,0.00,,,0.00,WeatherCatV1.11B39,2013-01-18 10:00:00,
2013-01-18 00:05:00,60.3,59.1,29.85,North,0,0.0,0.0,96,0.00,,,0.00,WeatherCatV1.11B39,2013-01-18 10:05:00,
2013-01-18 00:10:00,60.3,59.1,29.85,North,0,0.0,0.0,96,0.00,,,0.00,WeatherCatV1.11B39,2013-01-18 10:10:00,
2013-01-18 00:15:00,59.7,58.5,29.85,North,0,0.0,0.0,96,0.00,,,0.00,WeatherCatV1.11B39,2013-01-18 10:15:00,
2013-01-18 00:20:00,59.7,58.5,29.85,North,0,0.0,0.0,96,0.00,,,0.00,WeatherCatV1.11B39,2013-01-18 10:20:00,
2013-01-18 00:25:00,59.7,58.5,29.85,North,0,0.0,0.0,96,0.00,,,0.00,WeatherCatV1.11B39,2013-01-18 10:25:00,
2013-01-18 00:30:00,59.7,58.5,29.85,North,0,0.0,0.0,96,0.00,,,0.00,WeatherCatV1.11B39,2013-01-18 10:30:00,
2013-01-18 00:35:00,59.7,58.5,29.85,North,0,0.0,0.0,96,0.00,,,0.00,WeatherCatV1.11B39,2013-01-18 10:35:00,
2013-01-18 00:40:00,59.7,58.5,29.85,North,0,0.0,0.0,96,0.00,,,0.00,WeatherCatV1.11B39,2013-01-18 10:40:00,
2013-01-18 00:45:00,59.0,57.9,29.85,North,0,0.0,0.0,96,0.00,,,0.00,WeatherCatV1.11B39,2013-01-18 10:45:00,
2013-01-18 00:50:00,59.0,57.9,29.85,North,0,0.0,0.0,96,0.00,,,0.00,WeatherCatV1.11B39,2013-01-18 10:50:00,
2013-01-18 00:55:00,59.0,57.9,29.85,North,0,0.0,0.0,96,0.00,,,0.00,WeatherCatV1.11B39,2013-01-18 10:55:00,
2013-01-18 01:00:00,59.0,57.9,29.85,North,0,0.0,0.0,96,0.00,,,0.00,WeatherCatV1.11B39,2013-01-18 11:00:00,
2013-01-18 01:05:00,59.0,57.9,29.85,North,0,0.0,0.0,96,0.00,,,0.00,WeatherCatV1.11B39,2013-01-18 11:05:00,
2013-01-18 01:10:00,59.0,57.9,29.85,North,0,0.0,0.0,96,0.00,,,0.00,WeatherCatV1.11B39,2013-01-18 11:10:00,
2013-01-18 01:15:00,58.3,57.2,29.84,North,0,0.0,0.0,96,0.00,,,0.00,WeatherCatV1.11B39,2013-01-18 11:15:00,
2013-01-18 01:20:00,58.3,57.2,29.84,North,0,0.0,0.0,96,0.00,,,0.00,WeatherCatV1.11B39,2013-01-18 11:20:00,
2013-01-18 01:25:00,58.3,57.2,29.84,North,0,0.0,0.0,96,0.00,,,0.00,WeatherCatV1.11B39,2013-01-18 11:25:00,
2013-01-18 01:30:00,58.3,57.2,29.84,North,0,0.0,0.0,96,0.00,,,0.00,WeatherCatV1.11B39,2013-01-18 11:30:00,
2013-01-18 01:35:00,58.3,57.2,29.84,North,0,0.0,0.0,96,0.00,,,0.00,WeatherCatV1.11B39,2013-01-18 11:35:00,
2013-01-18 01:40:00,58.3,57.2,29.84,North,0,0.0,0.0,96,0.00,,,0.00,WeatherCatV1.11B39,2013-01-18 11:40:00,
2013-01-18 01:45:00,58.8,58.2,29.84,North,0,0.0,0.0,98,0.00,,,0.00,WeatherCatV1.11B39,2013-01-18 11:45:00,
2013-01-18 01:50:00,58.8,58.2,29.84,North,0,0.0,0.0,98,0.00,,,0.00,WeatherCatV1.11B39,2013-01-18 11:50:00,
2013-01-18 01:55:00,58.8,58.2,29.84,North,0,0.0,0.0,98,0.00,,,0.00,WeatherCatV1.11B39,2013-01-18 11:55:00,
2013-01-18 02:00:00,58.8,58.2,29.84,North,0,0.0,0.0,98,0.00,,,0.00,WeatherCatV1.11B39,2013-01-18 12:00:00,
2013-01-18 02:05:00,58.8,58.2,29.84,North,0,0.0,0.0,98,0.00,,,0.00,WeatherCatV1.11B39,2013-01-18 12:05:00,
2013-01-18 02:10:00,58.8,58.2,29.84,North,0,0.0,0.0,98,0.00,,,0.00,WeatherCatV1.11B39,2013-01-18 12:10:00,
2013-01-18 02:15:00,58.8,58.0,29.83,North,0,0.0,0.0,97,0.00,,,0.00,WeatherCatV1.11B39,2013-01-18 12:15:00,
2013-01-18 02:20:00,58.8,58.0,29.83,North,0,0.0,0.0,97,0.00,,,0.00,WeatherCatV1.11B39,2013-01-18 12:20:00,
2013-01-18 02:25:00,58.8,58.0,29.83,North,0,0.0,0.0,97,0.00,,,0.00,WeatherCatV1.11B39,2013-01-18 12:25:00,
2013-01-18 02:30:00,58.8,58.0,29.83,North,0,0.0,0.0,97,0.00,,,0.00,WeatherCatV1.11B39,2013-01-18 12:30:00,
2013-01-18 02:35:00,58.8,58.0,29.83,North,0,0.0,0.0,97,0.00,,,0.00,WeatherCatV1.11B39,2013-01-18 12:35:00,
2013-01-18 02:40:00,58.8,58.0,29.83,North,0,0.0,0.0,97,0.00,,,0.00,WeatherCatV1.11B39,2013-01-18 12:40:00,
2013-01-18 02:45:00,59.5,58.4,29.83,North,0,0.0,0.0,96,0.00,,,0.00,WeatherCatV1.11B39,2013-01-18 12:45:00,
2013-01-18 02:50:00,59.5,58.4,29.83,North,0,0.0,0.0,96,0.00,,,0.00,WeatherCatV1.11B39,2013-01-18 12:50:00,
2013-01-18 02:55:00,59.5,58.4,29.83,North,0,0.0,0.0,96,0.00,,,0.00,WeatherCatV1.11B39,2013-01-18 12:55:00,
2013-01-18 03:00:00,59.5,58.4,29.83,North,0,0.0,0.0,96,0.00,,,0.00,WeatherCatV1.11B39,2013-01-18 13:00:00,
2013-01-18 03:05:00,59.5,58.4,29.83,North,0,0.0,0.0,96,0.00,,,0.00,WeatherCatV1.11B39,2013-01-18 13:05:00,
2013-01-18 03:10:00,59.5,58.4,29.83,North,0,0.0,0.0,96,0.00,,,0.00,WeatherCatV1.11B39,2013-01-18 13:10:00,
2013-01-18 03:15:00,59.3,58.2,29.83,North,0,0.0,0.0,96,0.00,,,0.00,WeatherCatV1.11B39,2013-01-18 13:15:00,
2013-01-18 03:20:00,59.3,58.2,29.83,North,0,0.0,0.0,96,0.00,,,0.00,WeatherCatV1.11B39,2013-01-18 13:20:00,
2013-01-18 03:25:00,59.3,58.2,29.83,North,0,0.0,0.0,96,0.00,,,0.00,WeatherCatV1.11B39,2013-01-18 13:25:00,
2013-01-18 03:30:00,59.3,58.2,29.83,North,0,0.0,0.0,96,0.00,,,0.00,WeatherCatV1.11B39,2013-01-18 13:30:00,
2013-01-18 03:35:00,59.3,58.2,29.83,North,0,0.0,0.0,96,0.00,,,0.00,WeatherCatV1.11B39,2013-01-18 13:35:00,
2013-01-18 03:40:00,59.3,58.2,29.83,North,0,0.0,0.0,96,0.00,,,0.00,WeatherCatV1.11B39,2013-01-18 13:40:00,
2013-01-18 03:45:00,58.2,57.1,29.82,North,0,0.0,0.0,96,0.00,,,0.00,WeatherCatV1.11B39,2013-01-18 13:45:00,
2013-01-18 03:50:00,58.2,57.1,29.82,North,0,0.0,0.0,96,0.00,,,0.00,WeatherCatV1.11B39,2013-01-18 13:50:00,
2013-01-18 03:55:00,58.2,57.1,29.82,North,0,0.0,0.0,96,0.00,,,0.00,WeatherCatV1.11B39,2013-01-18 13:55:00,
2013-01-18 04:00:00,58.2,57.1,29.82,North,0,0.0,0.0,96,0.00,,,0.00,WeatherCatV1.11B39,2013-01-18 14:00:00,
2013-01-18 04:05:00,58.2,57.1,29.82,North,0,0.0,0.0,96,0.00,,,0.00,WeatherCatV1.11B39,2013-01-18 14:05:00,
2013-01-18 04:10:00,58.2,57.1,29.82,North,0,0.0,0.0,96,0.00,,,0.00,WeatherCatV1.11B39,2013-01-18 14:10:00,
2013-01-18 04:15:00,57.9,57.1,29.81,North,0,0.0,0.0,97,0.00,,,0.00,WeatherCatV1.11B39,2013-01-18 14:15:00,
2013-01-18 04:20:00,57.9,57.1,29.81,North,0,0.0,0.0,97,0.00,,,0.00,WeatherCatV1.11B39,2013-01-18 14:20:00,
2013-01-18 04:25:00,57.9,57.1,29.81,North,0,0.0,0.0,97,0.00,,,0.00,WeatherCatV1.11B39,2013-01-18 14:25:00,
2013-01-18 04:30:00,57.9,57.1,29.81,North,0,0.0,0.0,97,0.00,,,0.00,WeatherCatV1.11B39,2013-01-18 14:30:00,
2013-01-18 04:35:00,57.9,57.1,29.81,North,0,0.0,0.0,97,0.00,,,0.00,WeatherCatV1.11B39,2013-01-18 14:35:00,
2013-01-18 04:40:00,57.9,57.1,29.81,North,0,0.0,0.0,97,0.00,,,0.00,WeatherCatV1.11B39,2013-01-18 14:40:00,
2013-01-18 04:45:00,57.9,57.3,29.82,North,0,0.0,0.0,98,0.00,,,0.00,WeatherCatV1.11B39,2013-01-18 14:45:00,
2013-01-18 04:50:00,57.9,57.3,29.82,North,0,0.0,0.0,98,0.00,,,0.00,WeatherCatV1.11B39,2013-01-18 14:50:00,
2013-01-18 04:55:00,57.9,57.3,29.82,North,0,0.0,0.0,98,0.00,,,0.00,WeatherCatV1.11B39,2013-01-18 14:55:00,
2013-01-18 05:00:00,57.9,57.3,29.82,North,0,0.0,0.0,98,0.00,,,0.00,WeatherCatV1.11B39,2013-01-18 15:00:00,
2013-01-18 05:05:00,57.9,57.3,29.82,North,0,0.0,0.0,98,0.00,,,0.00,WeatherCatV1.11B39,2013-01-18 15:05:00,
2013-01-18 05:10:00,57.9,57.3,29.82,North,0,0.0,0.0,98,0.00,,,0.00,WeatherCatV1.11B39,2013-01-18 15:10:00,
2013-01-18 05:15:00,58.3,57.7,29.82,North,0,0.0,0.0,98,0.00,,,0.00,WeatherCatV1.11B39,2013-01-18 15:15:00,
2013-01-18 05:20:00,58.3,57.7,29.82,North,0,0.0,0.0,98,0.00,,,0.00,WeatherCatV1.11B39,2013-01-18 15:20:00,
2013-01-18 05:25:00,58.3,57.7,29.82,North,0,0.0,0.0,98,0.00,,,0.00,WeatherCatV1.11B39,2013-01-18 15:25:00,
2013-01-18 05:30:00,58.3,57.7,29.82,North,0,0.0,0.0,98,0.00,,,0.00,WeatherCatV1.11B39,2013-01-18 15:30:00,
2013-01-18 05:35:00,58.3,57.7,29.82,North,0,0.0,0.0,98,0.00,,,0.00,WeatherCatV1.11B39,2013-01-18 15:35:00,
2013-01-18 05:40:00,58.3,57.7,29.82,North,0,0.0,0.0,98,0.00,,,0.00,WeatherCatV1.11B39,2013-01-18 15:40:00,
2013-01-18 05:45:00,57.6,56.8,29.82,North,0,0.0,0.0,97,0.00,,,0.00,WeatherCatV1.11B39,2013-01-18 15:45:00,
2013-01-18 05:50:00,57.6,56.8,29.82,North,0,0.0,0.0,97,0.00,,,0.00,WeatherCatV1.11B39,2013-01-18 15:50:00,
2013-01-18 05:55:00,57.6,56.8,29.82,North,0,0.0,0.0,97,0.00,,,0.00,WeatherCatV1.11B39,2013-01-18 15:55:00,
2013-01-18 06:00:00,57.6,56.8,29.82,North,0,0.0,0.0,97,0.00,,,0.00,WeatherCatV1.11B39,2013-01-18 16:00:00,
2013-01-18 06:05:00,57.6,56.8,29.82,North,0,0.0,0.0,97,0.00,,,0.00,WeatherCatV1.11B39,2013-01-18 16:05:00,
2013-01-18 06:10:00,57.6,56.8,29.82,North,0,0.0,0.0,97,0.00,,,0.00,WeatherCatV1.11B39,2013-01-18 16:10:00,
2013-01-18 06:15:00,57.6,57.0,29.83,North,0,0.0,0.0,98,0.00,,,0.00,WeatherCatV1.11B39,2013-01-18 16:15:00,
2013-01-18 06:20:00,57.6,57.0,29.83,North,0,0.0,0.0,98,0.00,,,0.00,WeatherCatV1.11B39,2013-01-18 16:20:00,
2013-01-18 06:25:00,57.6,57.0,29.83,North,0,0.0,0.0,98,0.00,,,0.00,WeatherCatV1.11B39,2013-01-18 16:25:00,
2013-01-18 06:30:00,57.6,57.0,29.83,North,0,0.0,0.0,98,0.00,,,0.00,WeatherCatV1.11B39,2013-01-18 16:30:00,
2013-01-18 06:35:00,57.6,57.0,29.83,North,0,0.0,0.0,98,0.00,,,0.00,WeatherCatV1.11B39,2013-01-18 16:35:00,
2013-01-18 06:40:00,57.6,57.0,29.83,North,0,0.0,0.0,98,0.00,,,0.00,WeatherCatV1.11B39,2013-01-18 16:40:00,
2013-01-18 06:45:00,57.2,56.4,29.83,North,0,0.0,0.0,97,0.00,,,0.00,WeatherCatV1.11B39,2013-01-18 16:45:00,
2013-01-18 06:50:00,57.2,56.4,29.83,North,0,0.0,0.0,97,0.00,,,0.00,WeatherCatV1.11B39,2013-01-18 16:50:00,
2013-01-18 06:55:00,57.2,56.4,29.83,North,0,0.0,0.0,97,0.00,,,0.00,WeatherCatV1.11B39,2013-01-18 16:55:00,
2013-01-18 07:00:00,57.2,56.4,29.83,North,0,0.0,0.0,97,0.00,,,0.00,WeatherCatV1.11B39,2013-01-18 17:00:00,
2013-01-18 07:05:00,57.2,56.4,29.83,North,0,0.0,0.0,97,0.00,,,0.00,WeatherCatV1.11B39,2013-01-18 17:05:00,
2013-01-18 07:18:00,57.2,56.4,29.83,North,0,0.0,0.0,97,0.00,,,0.00,WeatherCatV1.11B39,2013-01-18 17:18:00,
2013-01-18 07:23:00,57.0,56.2,29.85,North,5,0.0,0.0,97,0.00,,,0.00,WeatherCatV1.11B39,2013-01-18 17:23:00,
2013-01-18 07:28:00,57.2,56.6,29.85,North,5,0.0,0.0,98,0.00,,,0.00,WeatherCatV1.11B39,2013-01-18 17:28:00,
2013-01-18 07:33:00,57.3,56.7,29.85,North,5,0.0,0.0,98,0.00,,,0.00,WeatherCatV1.11B39,2013-01-18 17:33:00,
2013-01-18 07:38:00,57.5,56.9,29.85,North,5,0.0,0.0,98,0.00,,,0.00,WeatherCatV1.11B39,2013-01-18 17:38:00,
2013-01-18 07:43:00,57.6,57.0,29.86,North,5,0.0,0.0,98,0.00,,,0.00,WeatherCatV1.11B39,2013-01-18 17:43:00,
2013-01-18 07:48:00,57.7,57.1,29.86,North,4,0.0,0.0,98,0.00,,,0.00,WeatherCatV1.11B39,2013-01-18 17:48:00,
2013-01-18 07:53:00,58.0,57.4,29.86,North,4,0.0,0.0,98,0.00,,,0.00,WeatherCatV1.11B39,2013-01-18 17:53:00,
2013-01-18 07:58:00,58.8,58.2,29.86,North,4,0.0,0.0,98,0.00,,,0.00,WeatherCatV1.11B39,2013-01-18 17:58:00,
2013-01-18 08:03:00,59.4,58.8,29.86,North,4,0.0,0.0,98,0.00,,,0.00,WeatherCatV1.11B39,2013-01-18 18:03:00,
2013-01-18 08:08:00,60.7,60.1,29.87,North,4,0.0,0.0,98,0.00,,,0.00,WeatherCatV1.11B39,2013-01-18 18:08:00,
2013-01-18 08:13:00,61.4,60.2,29.87,North,4,0.0,0.0,96,0.00,,,0.00,WeatherCatV1.11B39,2013-01-18 18:13:00,
2013-01-18 08:18:00,62.3,60.5,29.87,North,4,0.0,0.0,94,0.00,,,0.00,WeatherCatV1.11B39,2013-01-18 18:18:00,
2013-01-18 08:23:00,62.6,59.9,29.87,North,4,0.0,0.0,91,0.00,,,0.00,WeatherCatV1.11B39,2013-01-18 18:23:00,
2013-01-18 08:28:00,63.4,61.3,29.88,North,4,0.0,0.0,93,0.00,,,0.00,WeatherCatV1.11B39,2013-01-18 18:28:00,
2013-01-18 08:33:00,64.9,61.9,29.88,North,4,0.0,0.0,90,0.00,,,0.00,WeatherCatV1.11B39,2013-01-18 18:33:00,
2013-01-18 08:38:00,65.9,62.2,29.88,North,4,0.0,0.0,88,0.00,,,0.00,WeatherCatV1.11B39,2013-01-18 18:38:00,
2013-01-18 08:43:00,67.3,63.0,29.88,North,4,0.0,0.0,86,0.00,,,0.00,WeatherCatV1.11B39,2013-01-18 18:43:00,
2013-01-18 08:48:00,67.1,62.1,29.88,North,4,0.0,0.0,84,0.00,,,0.00,WeatherCatV1.11B39,2013-01-18 18:48:00,
2013-01-18 08:53:00,67.1,62.1,29.89,North,3,0.0,0.0,84,0.00,,,0.00,WeatherCatV1.11B39,2013-01-18 18:53:00,
2013-01-18 08:58:00,66.9,61.9,29.89,North,355,0.0,0.0,84,0.00,,,0.00,WeatherCatV1.11B39,2013-01-18 18:58:00,
2013-01-18 09:03:00,67.0,62.3,29.89,North,355,0.0,1.0,85,0.00,,,0.00,WeatherCatV1.11B39,2013-01-18 19:03:00,
2013-01-18 09:08:00,67.3,62.3,29.89,NNW,343,0.0,1.0,84,0.00,,,0.00,WeatherCatV1.11B39,2013-01-18 19:08:00,
2013-01-18 09:13:00,68.0,62.3,29.89,WSW,239,0.0,1.0,82,0.00,,,0.00,WeatherCatV1.11B39,2013-01-18 19:13:00,
2013-01-18 09:18:00,69.0,62.9,29.89,West,259,0.0,2.0,81,0.00,,,0.00,WeatherCatV1.11B39,2013-01-18 19:18:00,
2013-01-18 09:23:00,69.9,63.1,29.89,WNW,299,1.0,2.0,79,0.00,,,0.00,WeatherCatV1.11B39,2013-01-18 19:23:00,
2013-01-18 09:28:00,70.4,63.6,29.89,SW,226,1.0,3.0,79,0.00,,,0.00,WeatherCatV1.11B39,2013-01-18 19:28:00,
2013-01-18 09:33:00,70.3,63.5,29.89,NW,311,1.0,1.0,79,0.00,,,0.00,WeatherCatV1.11B39,2013-01-18 19:33:00,
2013-01-18 09:38:00,70.2,63.4,29.90,WNW,285,2.0,2.0,79,0.00,,,0.00,WeatherCatV1.11B39,2013-01-18 19:38:00,
2013-01-18 09:43:00,70.2,63.4,29.90,WNW,299,2.0,2.0,79,0.00,,,0.00,WeatherCatV1.11B39,2013-01-18 19:43:00,
2013-01-18 09:48:00,70.6,63.8,29.90,NW,308,1.0,1.0,79,0.00,,,0.00,WeatherCatV1.11B39,2013-01-18 19:48:00,
2013-01-18 09:53:00,70.6,63.8,29.90,WSW,250,1.0,2.0,79,0.00,,,0.00,WeatherCatV1.11B39,2013-01-18 19:53:00,
2013-01-18 09:58:00,70.4,63.2,29.90,West,276,1.0,2.0,78,0.00,,,0.00,WeatherCatV1.11B39,2013-01-18 19:58:00,
2013-01-18 10:03:00,71.0,63.4,29.90,WNW,293,0.0,2.0,77,0.00,,,0.00,WeatherCatV1.11B39,2013-01-18 20:03:00,
2013-01-18 10:08:00,71.7,64.1,29.90,WSW,255,2.0,3.0,77,0.00,,,0.00,WeatherCatV1.11B39,2013-01-18 20:08:00,
2013-01-18 10:13:00,72.3,63.5,29.90,WNW,293,2.0,5.0,74,0.00,,,0.00,WeatherCatV1.11B39,2013-01-18 20:13:00,
2013-01-18 10:18:00,72.9,63.7,29.90,WNW,290,0.0,6.0,73,0.00,,,0.00,WeatherCatV1.11B39,2013-01-18 20:18:00,
2013-01-18 10:20:00,73.0,63.4,29.90,WNW,289,2.0,2.0,72,0.00,,,0.00,WeatherCatV1.11B39,2013-01-18 20:20:00,
2013-01-18 10:23:00,73.0,63.8,29.90,WSW,256,2.0,4.0,73,0.00,,,0.00,WeatherCatV1.11B39,2013-01-18 20:23:00,
2013-01-18 10:25:00,72.9,63.3,29.90,WNW,291,1.0,3.0,72,0.00,,,0.00,WeatherCatV1.11B39,2013-01-18 20:25:00,
2013-01-18 10:30:00,72.9,63.3,29.90,WNW,291,1.0,3.0,72,0.00,,,0.00,WeatherCatV1.11B39,2013-01-18 20:30:00,
2013-01-18 10:35:00,72.9,63.3,29.90,WNW,291,1.0,3.0,72,0.00,,,0.00,WeatherCatV1.11B39,2013-01-18 20:35:00,
2013-01-18 10:40:00,72.9,63.3,29.90,WNW,291,1.0,3.0,72,0.00,,,0.00,WeatherCatV1.11B39,2013-01-18 20:40:00,
2013-01-18 10:45:00,72.9,63.3,29.90,WNW,291,1.0,3.0,72,0.00,,,0.00,WeatherCatV1.11B39,2013-01-18 20:45:00,
2013-01-18 10:50:00,72.7,63.5,29.90,WNW,292,1.0,6.0,73,0.00,,,0.00,WeatherCatV1.11B39,2013-01-18 20:50:00,
2013-01-18 10:55:00,72.7,63.5,29.90,WNW,292,1.0,6.0,73,0.00,,,0.00,WeatherCatV1.11B39,2013-01-18 20:55:00,
2013-01-18 11:00:00,72.7,63.5,29.90,WNW,292,1.0,6.0,73,0.00,,,0.00,WeatherCatV1.11B39,2013-01-18 21:00:00,
2013-01-18 11:05:00,72.7,63.5,29.90,WNW,292,1.0,6.0,73,0.00,,,0.00,WeatherCatV1.11B39,2013-01-18 21:05:00,
2013-01-18 11:10:00,72.7,63.5,29.90,WNW,292,1.0,6.0,73,0.00,,,0.00,WeatherCatV1.11B39,2013-01-18 21:10:00,
2013-01-18 11:15:00,72.7,63.5,29.90,WNW,292,1.0,6.0,73,0.00,,,0.00,WeatherCatV1.11B39,2013-01-18 21:15:00,
2013-01-18 11:20:00,68.5,64.8,29.90,NW,315,2.0,15.0,88,0.00,,,0.00,WeatherCatV1.11B39,2013-01-18 21:20:00,
2013-01-18 11:25:00,68.5,64.8,29.90,NW,315,2.0,15.0,88,0.00,,,0.00,WeatherCatV1.11B39,2013-01-18 21:25:00,
2013-01-18 11:30:00,68.5,64.8,29.90,NW,315,2.0,15.0,88,0.00,,,0.00,WeatherCatV1.11B39,2013-01-18 21:30:00,
2013-01-18 11:35:00,68.5,64.8,29.90,NW,315,2.0,15.0,88,0.00,,,0.00,WeatherCatV1.11B39,2013-01-18 21:35:00,
2013-01-18 11:40:00,68.5,64.8,29.90,NW,315,2.0,15.0,88,0.00,,,0.00,WeatherCatV1.11B39,2013-01-18 21:40:00,
2013-01-18 11:45:00,68.5,64.8,29.90,NW,315,2.0,15.0,88,0.00,,,0.00,WeatherCatV1.11B39,2013-01-18 21:45:00,
2013-01-18 11:50:00,67.2,65.7,29.89,NE,45,1.0,10.0,95,0.30,,,0.00,WeatherCatV1.11B39,2013-01-18 21:50:00,
2013-01-18 11:55:00,67.2,65.7,29.89,NE,45,1.0,10.0,95,0.30,,,0.00,WeatherCatV1.11B39,2013-01-18 21:55:00,
2013-01-18 12:00:00,67.2,65.7,29.89,NE,45,1.0,10.0,95,0.30,,,0.00,WeatherCatV1.11B39,2013-01-18 22:00:00,
2013-01-18 12:05:00,67.2,65.7,29.89,NE,45,1.0,10.0,95,0.30,,,0.00,WeatherCatV1.11B39,2013-01-18 22:05:00,
2013-01-18 12:10:00,67.2,65.7,29.89,NE,45,1.0,10.0,95,0.30,,,0.00,WeatherCatV1.11B39,2013-01-18 22:10:00,
2013-01-18 12:15:00,67.2,65.7,29.89,NE,45,1.0,10.0,95,0.30,,,0.00,WeatherCatV1.11B39,2013-01-18 22:15:00,
2013-01-18 12:20:00,69.8,66.1,29.87,SW,225,0.0,4.0,88,0.00,,,0.00,WeatherCatV1.11B39,2013-01-18 22:20:00,
2013-01-18 12:25:00,69.8,66.1,29.87,SW,225,0.0,4.0,88,0.00,,,0.00,WeatherCatV1.11B39,2013-01-18 22:25:00,
2013-01-18 12:30:00,69.8,66.1,29.87,SW,225,0.0,4.0,88,0.00,,,0.00,WeatherCatV1.11B39,2013-01-18 22:30:00,
2013-01-18 12:35:00,69.8,66.1,29.87,SW,225,0.0,4.0,88,0.00,,,0.00,WeatherCatV1.11B39,2013-01-18 22:35:00,
2013-01-18 12:40:00,69.8,66.1,29.87,SW,225,0.0,4.0,88,0.00,,,0.00,WeatherCatV1.11B39,2013-01-18 22:40:00,
2013-01-18 12:45:00,69.8,66.1,29.87,SW,225,0.0,4.0,88,0.00,,,0.00,WeatherCatV1.11B39,2013-01-18 22:45:00,
2013-01-18 12:50:00,70.1,65.4,29.85,WNW,292,1.0,8.0,85,0.00,,,0.00,WeatherCatV1.11B39,2013-01-18 22:50:00,
2013-01-18 12:55:00,70.1,65.4,29.85,WNW,292,1.0,8.0,85,0.00,,,0.00,WeatherCatV1.11B39,2013-01-18 22:55:00,
2013-01-18 13:00:00,70.1,65.4,29.85,WNW,292,1.0,8.0,85,0.00,,,0.00,WeatherCatV1.11B39,2013-01-18 23:00:00,
2013-01-18 13:05:00,70.1,65.4,29.85,WNW,292,1.0,8.0,85,0.00,,,0.00,WeatherCatV1.11B39,2013-01-18 23:05:00,
2013-01-18 13:10:00,70.1,65.4,29.85,WNW,292,1.0,8.0,85,0.00,,,0.00,WeatherCatV1.11B39,2013-01-18 23:10:00,
2013-01-18 13:15:00,70.1,65.4,29.85,WNW,292,1.0,8.0,85,0.00,,,0.00,WeatherCatV1.11B39,2013-01-18 23:15:00,
2013-01-18 13:20:00,70.3,64.2,29.84,West,270,0.0,3.0,81,0.00,,,0.00,WeatherCatV1.11B39,2013-01-18 23:20:00,
2013-01-18 13:25:00,70.3,64.2,29.84,West,270,0.0,3.0,81,0.00,,,0.00,WeatherCatV1.11B39,2013-01-18 23:25:00,
2013-01-18 13:30:00,70.3,64.2,29.84,West,270,0.0,3.0,81,0.00,,,0.00,WeatherCatV1.11B39,2013-01-18 23:30:00,
2013-01-18 13:35:00,70.3,64.2,29.84,West,270,0.0,3.0,81,0.00,,,0.00,WeatherCatV1.11B39,2013-01-18 23:35:00,
2013-01-18 13:40:00,70.3,64.2,29.84,West,270,0.0,3.0,81,0.00,,,0.00,WeatherCatV1.11B39,2013-01-18 23:40:00,
2013-01-18 13:45:00,70.3,64.2,29.84,West,270,0.0,3.0,81,0.00,,,0.00,WeatherCatV1.11B39,2013-01-18 23:45:00,
2013-01-18 13:50:00,73.5,65.5,29.82,NE,45,1.0,9.0,76,0.00,,,0.00,WeatherCatV1.11B39,2013-01-18 23:50:00,
2013-01-18 13:55:00,73.5,65.5,29.82,NE,45,1.0,9.0,76,0.00,,,0.00,WeatherCatV1.11B39,2013-01-18 23:55:00,
2013-01-18 14:00:00,73.5,65.5,29.82,NE,45,1.0,9.0,76,0.00,,,0.00,WeatherCatV1.11B39,2013-01-19 00:00:00,
2013-01-18 14:05:00,73.5,65.5,29.82,NE,45,1.0,9.0,76,0.00,,,0.00,WeatherCatV1.11B39,2013-01-19 00:05:00,
2013-01-18 14:10:00,73.5,65.5,29.82,NE,45,1.0,9.0,76,0.00,,,0.00,WeatherCatV1.11B39,2013-01-19 00:10:00,
2013-01-18 14:15:00,73.5,65.5,29.82,NE,45,1.0,9.0,76,0.00,,,0.00,WeatherCatV1.11B39,2013-01-19 00:15:00,
2013-01-18 14:20:00,73.0,65.0,29.82,NNE,22,2.0,10.0,76,0.00,,,0.00,WeatherCatV1.11B39,2013-01-19 00:20:00,
2013-01-18 14:25:00,73.0,65.0,29.82,NNE,22,2.0,10.0,76,0.00,,,0.00,WeatherCatV1.11B39,2013-01-19 00:25:00,
2013-01-18 14:30:00,73.0,65.0,29.82,NNE,22,2.0,10.0,76,0.00,,,0.00,WeatherCatV1.11B39,2013-01-19 00:30:00,
2013-01-18 14:35:00,73.0,65.0,29.82,NNE,22,2.0,10.0,76,0.00,,,0.00,WeatherCatV1.11B39,2013-01-19 00:35:00,
2013-01-18 14:40:00,73.0,65.0,29.82,NNE,22,2.0,10.0,76,0.00,,,0.00,WeatherCatV1.11B39,2013-01-19 00:40:00,
2013-01-18 14:45:00,73.0,65.0,29.82,NNE,22,2.0,10.0,76,0.00,,,0.00,WeatherCatV1.11B39,2013-01-19 00:45:00,
2013-01-18 14:50:00,72.9,65.2,29.81,NNE,22,1.0,7.0,77,0.00,,,0.00,WeatherCatV1.11B39,2013-01-19 00:50:00,
2013-01-18 14:55:00,72.9,65.2,29.81,NNE,22,1.0,7.0,77,0.00,,,0.00,WeatherCatV1.11B39,2013-01-19 00:55:00,
2013-01-18 15:00:00,72.9,65.2,29.81,NNE,22,1.0,7.0,77,0.00,,,0.00,WeatherCatV1.11B39,2013-01-19 01:00:00,
2013-01-18 15:05:00,72.9,65.2,29.81,NNE,22,1.0,7.0,77,0.00,,,0.00,WeatherCatV1.11B39,2013-01-19 01:05:00,
2013-01-18 15:10:00,72.9,65.2,29.81,NNE,22,1.0,7.0,77,0.00,,,0.00,WeatherCatV1.11B39,2013-01-19 01:10:00,
2013-01-18 15:15:00,72.9,65.2,29.81,NNE,22,1.0,7.0,77,0.00,,,0.00,WeatherCatV1.11B39,2013-01-19 01:15:00,
2013-01-18 15:20:00,73.9,64.7,29.81,WNW,292,2.0,8.0,73,0.00,,,0.00,WeatherCatV1.11B39,2013-01-19 01:20:00,
2013-01-18 15:25:00,73.9,64.7,29.81,WNW,292,2.0,8.0,73,0.00,,,0.00,WeatherCatV1.11B39,2013-01-19 01:25:00,
2013-01-18 15:30:00,73.9,64.7,29.81,WNW,292,2.0,8.0,73,0.00,,,0.00,WeatherCatV1.11B39,2013-01-19 01:30:00,
2013-01-18 15:35:00,73.9,64.7,29.81,WNW,292,2.0,8.0,73,0.00,,,0.00,WeatherCatV1.11B39,2013-01-19 01:35:00,
2013-01-18 15:40:00,73.9,64.7,29.81,WNW,292,2.0,8.0,73,0.00,,,0.00,WeatherCatV1.11B39,2013-01-19 01:40:00,
2013-01-18 15:45:00,73.9,64.7,29.81,WNW,292,2.0,8.0,73,0.00,,,0.00,WeatherCatV1.11B39,2013-01-19 01:45:00,
2013-01-18 15:50:00,68.6,64.6,29.82,WNW,292,2.0,9.0,87,0.00,,,0.00,WeatherCatV1.11B39,2013-01-19 01:50:00,
2013-01-18 15:55:00,68.6,64.6,29.82,WNW,292,2.0,9.0,87,0.00,,,0.00,WeatherCatV1.11B39,2013-01-19 01:55:00,
2013-01-18 16:00:00,68.6,64.6,29.82,WNW,292,2.0,9.0,87,0.00,,,0.00,WeatherCatV1.11B39,2013-01-19 02:00:00,
2013-01-18 16:05:00,68.6,64.6,29.82,WNW,292,2.0,9.0,87,0.00,,,0.00,WeatherCatV1.11B39,2013-01-19 02:05:00,
2013-01-18 16:10:00,68.6,64.6,29.82,WNW,292,2.0,9.0,87,0.00,,,0.00,WeatherCatV1.11B39,2013-01-19 02:10:00,
2013-01-18 16:15:00,68.6,64.6,29.82,WNW,292,2.0,9.0,87,0.00,,,0.00,WeatherCatV1.11B39,2013-01-19 02:15:00,
2013-01-18 16:20:00,70.5,63.7,29.82,NNE,22,2.0,10.0,79,0.00,,,0.00,WeatherCatV1.11B39,2013-01-19 02:20:00,
2013-01-18 16:25:00,70.5,63.7,29.82,NNE,22,2.0,10.0,79,0.00,,,0.00,WeatherCatV1.11B39,2013-01-19 02:25:00,
2013-01-18 16:30:00,70.5,63.7,29.82,NNE,22,2.0,10.0,79,0.00,,,0.00,WeatherCatV1.11B39,2013-01-19 02:30:00,
2013-01-18 16:35:00,70.5,63.7,29.82,NNE,22,2.0,10.0,79,0.00,,,0.00,WeatherCatV1.11B39,2013-01-19 02:35:00,
2013-01-18 16:40:00,70.5,63.7,29.82,NNE,22,2.0,10.0,79,0.00,,,0.00,WeatherCatV1.11B39,2013-01-19 02:40:00,
2013-01-18 16:45:00,70.5,63.7,29.82,NNE,22,2.0,10.0,79,0.00,,,0.00,WeatherCatV1.11B39,2013-01-19 02:45:00,
2013-01-18 16:50:00,70.3,62.4,29.83,NE,45,2.0,8.0,76,0.00,,,0.00,WeatherCatV1.11B39,2013-01-19 02:50:00,
2013-01-18 16:55:00,70.3,62.4,29.83,NE,45,2.0,8.0,76,0.00,,,0.00,WeatherCatV1.11B39,2013-01-19 02:55:00,
2013-01-18 17:00:00,70.3,62.4,29.83,NE,45,2.0,8.0,76,0.00,,,0.00,WeatherCatV1.11B39,2013-01-19 03:00:00,
2013-01-18 17:05:00,70.3,62.4,29.83,NE,45,2.0,8.0,76,0.00,,,0.00,WeatherCatV1.11B39,2013-01-19 03:05:00,
2013-01-18 17:10:00,70.3,62.4,29.83,NE,45,2.0,8.0,76,0.00,,,0.00,WeatherCatV1.11B39,2013-01-19 03:10:00,
2013-01-18 17:15:00,70.3,62.4,29.83,NE,45,2.0,8.0,76,0.00,,,0.00,WeatherCatV1.11B39,2013-01-19 03:15:00,
2013-01-18 17:20:00,70.1,62.5,29.84,NNE,22,1.0,10.0,77,0.00,,,0.00,WeatherCatV1.11B39,2013-01-19 03:20:00,
2013-01-18 17:25:00,70.1,62.5,29.84,NNE,22,1.0,10.0,77,0.00,,,0.00,WeatherCatV1.11B39,2013-01-19 03:25:00,
2013-01-18 17:30:00,70.1,62.5,29.84,NNE,22,1.0,10.0,77,0.00,,,0.00,WeatherCatV1.11B39,2013-01-19 03:30:00,
2013-01-18 17:35:00,70.1,62.5,29.84,NNE,22,1.0,10.0,77,0.00,,,0.00,WeatherCatV1.11B39,2013-01-19 03:35:00,
2013-01-18 17:40:00,70.1,62.5,29.84,NNE,22,1.0,10.0,77,0.00,,,0.00,WeatherCatV1.11B39,2013-01-19 03:40:00,
2013-01-18 17:45:00,70.1,62.5,29.84,NNE,22,1.0,10.0,77,0.00,,,0.00,WeatherCatV1.11B39,2013-01-19 03:45:00,
2013-01-18 17:50:00,69.3,61.0,29.85,NE,45,1.0,9.0,75,0.00,,,0.00,WeatherCatV1.11B39,2013-01-19 03:50:00,
2013-01-18 17:55:00,69.3,61.0,29.85,NE,45,1.0,9.0,75,0.00,,,0.00,WeatherCatV1.11B39,2013-01-19 03:55:00,
2013-01-18 18:00:00,69.3,61.0,29.85,NE,45,1.0,9.0,75,0.00,,,0.00,WeatherCatV1.11B39,2013-01-19 04:00:00,
2013-01-18 18:05:00,69.3,61.0,29.85,NE,45,1.0,9.0,75,0.00,,,0.00,WeatherCatV1.11B39,2013-01-19 04:05:00,
2013-01-18 18:10:00,69.3,61.0,29.85,NE,45,1.0,9.0,75,0.00,,,0.00,WeatherCatV1.11B39,2013-01-19 04:10:00,
2013-01-18 18:15:00,69.3,61.0,29.85,NE,45,1.0,9.0,75,0.00,,,0.00,WeatherCatV1.11B39,2013-01-19 04:15:00,
2013-01-18 18:20:00,68.8,60.5,29.86,NE,45,1.0,8.0,75,0.00,,,0.00,WeatherCatV1.11B39,2013-01-19 04:20:00,
2013-01-18 18:25:00,68.8,60.5,29.86,NE,45,1.0,8.0,75,0.00,,,0.00,WeatherCatV1.11B39,2013-01-19 04:25:00,
2013-01-18 18:30:00,68.8,60.5,29.86,NE,45,1.0,8.0,75,0.00,,,0.00,WeatherCatV1.11B39,2013-01-19 04:30:00,
2013-01-18 18:35:00,68.8,60.5,29.86,NE,45,1.0,8.0,75,0.00,,,0.00,WeatherCatV1.11B39,2013-01-19 04:35:00,
2013-01-18 18:40:00,68.8,60.5,29.86,NE,45,1.0,8.0,75,0.00,,,0.00,WeatherCatV1.11B39,2013-01-19 04:40:00,
2013-01-18 18:45:00,68.8,60.5,29.86,NE,45,1.0,8.0,75,0.00,,,0.00,WeatherCatV1.11B39,2013-01-19 04:45:00,
2013-01-18 18:50:00,68.4,59.0,29.87,NE,45,2.0,8.0,72,0.00,,,0.00,WeatherCatV1.11B39,2013-01-19 04:50:00,
2013-01-18 18:55:00,68.4,59.0,29.87,NE,45,2.0,8.0,72,0.00,,,0.00,WeatherCatV1.11B39,2013-01-19 04:55:00,
2013-01-18 19:00:00,68.4,59.0,29.87,NE,45,2.0,8.0,72,0.00,,,0.00,WeatherCatV1.11B39,2013-01-19 05:00:00,
2013-01-18 19:05:00,68.4,59.0,29.87,NE,45,2.0,8.0,72,0.00,,,0.00,WeatherCatV1.11B39,2013-01-19 05:05:00,
2013-01-18 19:10:00,68.4,59.0,29.87,NE,45,2.0,8.0,72,0.00,,,0.00,WeatherCatV1.11B39,2013-01-19 05:10:00,
2013-01-18 19:15:00,68.4,59.0,29.87,NE,45,2.0,8.0,72,0.00,,,0.00,WeatherCatV1.11B39,2013-01-19 05:15:00,
2013-01-18 19:20:00,67.6,57.8,29.88,NE,45,1.0,9.0,71,0.00,,,0.00,WeatherCatV1.11B39,2013-01-19 05:20:00,
2013-01-18 19:25:00,67.6,57.8,29.88,NE,45,1.0,9.0,71,0.00,,,0.00,WeatherCatV1.11B39,2013-01-19 05:25:00,
2013-01-18 19:30:00,67.6,57.8,29.88,NE,45,1.0,9.0,71,0.00,,,0.00,WeatherCatV1.11B39,2013-01-19 05:30:00,
2013-01-18 19:35:00,67.6,57.8,29.88,NE,45,1.0,9.0,71,0.00,,,0.00,WeatherCatV1.11B39,2013-01-19 05:35:00,
2013-01-18 19:40:00,67.6,57.8,29.88,NE,45,1.0,9.0,71,0.00,,,0.00,WeatherCatV1.11B39,2013-01-19 05:40:00,
2013-01-18 19:45:00,67.6,57.8,29.88,NE,45,1.0,9.0,71,0.00,,,0.00,WeatherCatV1.11B39,2013-01-19 05:45:00,
2013-01-18 19:50:00,67.6,57.1,29.90,NNE,22,1.0,13.0,69,0.00,,,0.00,WeatherCatV1.11B39,2013-01-19 05:50:00,
2013-01-18 19:55:00,67.6,57.1,29.90,NNE,22,1.0,13.0,69,0.00,,,0.00,WeatherCatV1.11B39,2013-01-19 05:55:00,
2013-01-18 20:00:00,67.6,57.1,29.90,NNE,22,1.0,13.0,69,0.00,,,0.00,WeatherCatV1.11B39,2013-01-19 06:00:00,
2013-01-18 20:05:00,67.6,57.1,29.90,NNE,22,1.0,13.0,69,0.00,,,0.00,WeatherCatV1.11B39,2013-01-19 06:05:00,
2013-01-18 20:10:00,67.6,57.1,29.90,NNE,22,1.0,13.0,69,0.00,,,0.00,WeatherCatV1.11B39,2013-01-19 06:10:00,
2013-01-18 20:15:00,67.6,57.1,29.90,NNE,22,1.0,13.0,69,0.00,,,0.00,WeatherCatV1.11B39,2013-01-19 06:15:00,
2013-01-18 20:20:00,66.8,55.9,29.90,NNE,22,0.0,3.0,68,0.00,,,0.00,WeatherCatV1.11B39,2013-01-19 06:20:00,
2013-01-18 20:25:00,66.8,55.9,29.90,NNE,22,0.0,3.0,68,0.00,,,0.00,WeatherCatV1.11B39,2013-01-19 06:25:00,
2013-01-18 20:30:00,66.8,55.9,29.90,NNE,22,0.0,3.0,68,0.00,,,0.00,WeatherCatV1.11B39,2013-01-19 06:30:00,
2013-01-18 20:35:00,66.8,55.9,29.90,NNE,22,0.0,3.0,68,0.00,,,0.00,WeatherCatV1.11B39,2013-01-19 06:35:00,
2013-01-18 20:40:00,66.8,55.9,29.90,NNE,22,0.0,3.0,68,0.00,,,0.00,WeatherCatV1.11B39,2013-01-19 06:40:00,
2013-01-18 20:45:00,66.8,55.9,29.90,NNE,22,0.0,3.0,68,0.00,,,0.00,WeatherCatV1.11B39,2013-01-19 06:45:00,
2013-01-18 20:50:00,66.4,56.7,29.90,North,0,0.0,5.0,71,0.00,,,0.00,WeatherCatV1.11B39,2013-01-19 06:50:00,
2013-01-18 20:55:00,66.4,56.7,29.90,North,0,0.0,5.0,71,0.00,,,0.00,WeatherCatV1.11B39,2013-01-19 06:55:00,
2013-01-18 21:00:00,66.4,56.7,29.90,North,0,0.0,5.0,71,0.00,,,0.00,WeatherCatV1.11B39,2013-01-19 07:00:00,
2013-01-18 21:05:00,66.4,56.7,29.90,North,0,0.0,5.0,71,0.00,,,0.00,WeatherCatV1.11B39,2013-01-19 07:05:00,
2013-01-18 21:10:00,66.4,56.7,29.90,North,0,0.0,5.0,71,0.00,,,0.00,WeatherCatV1.11B39,2013-01-19 07:10:00,
2013-01-18 21:15:00,66.4,56.7,29.90,North,0,0.0,5.0,71,0.00,,,0.00,WeatherCatV1.11B39,2013-01-19 07:15:00,
2013-01-18 21:20:00,67.0,59.2,29.91,NNE,22,0.0,4.0,76,0.00,,,0.00,WeatherCatV1.11B39,2013-01-19 07:20:00,
2013-01-18 21:25:00,67.0,59.2,29.91,NNE,22,0.0,4.0,76,0.00,,,0.00,WeatherCatV1.11B39,2013-01-19 07:25:00,
2013-01-18 21:30:00,67.0,59.2,29.91,NNE,22,0.0,4.0,76,0.00,,,0.00,WeatherCatV1.11B39,2013-01-19 07:30:00,
2013-01-18 21:35:00,67.0,59.2,29.91,NNE,22,0.0,4.0,76,0.00,,,0.00,WeatherCatV1.11B39,2013-01-19 07:35:00,
2013-01-18 21:40:00,67.0,59.2,29.91,NNE,22,0.0,4.0,76,0.00,,,0.00,WeatherCatV1.11B39,2013-01-19 07:40:00,
2013-01-18 21:54:00,67.0,59.2,29.91,NNE,22,0.0,4.0,76,0.00,,,0.00,WeatherCatV1.11B39,2013-01-19 07:54:00,
2013-01-18 21:59:00,66.8,55.9,29.92,West,270,0.0,3.0,68,0.00,,,0.06,WeatherCatV1.11B39,2013-01-19 07:59:00,
2013-01-18 22:04:00,66.6,55.7,29.92,NNW,348,2.0,4.0,68,0.00,,,0.06,WeatherCatV1.11B39,2013-01-19 08:04:00,
2013-01-18 22:09:00,66.6,55.7,29.92,North,356,0.0,5.0,68,0.00,,,0.06,WeatherCatV1.11B39,2013-01-19 08:09:00,
2013-01-18 22:14:00,66.6,55.7,29.92,NNW,348,1.0,1.0,68,0.00,,,0.06,WeatherCatV1.11B39,2013-01-19 08:14:00,
2013-01-18 22:19:00,66.6,55.3,29.92,East,91,0.0,4.0,67,0.00,,,0.06,WeatherCatV1.11B39,2013-01-19 08:19:00,
2013-01-18 22:21:00,66.5,55.6,29.92,NNE,16,1.0,1.0,68,0.00,,,0.06,WeatherCatV1.11B39,2013-01-19 08:21:00,
2013-01-18 22:26:00,66.3,55.8,29.92,ENE,69,0.0,1.0,69,0.00,,,0.06,WeatherCatV1.11B39,2013-01-19 08:26:00,
2013-01-18 22:31:00,66.2,55.7,29.92,North,355,0.0,0.0,69,0.00,,,0.06,WeatherCatV1.11B39,2013-01-19 08:31:00,
2013-01-18 22:36:00,65.8,54.9,29.92,NNE,17,0.0,2.0,68,0.00,,,0.06,WeatherCatV1.11B39,2013-01-19 08:36:00,
2013-01-18 22:41:00,65.8,55.3,29.92,NW,323,0.0,1.0,69,0.00,,,0.06,WeatherCatV1.11B39,2013-01-19 08:41:00,
2013-01-18 22:46:00,65.9,55.4,29.92,NNW,337,0.0,4.0,69,0.00,,,0.06,WeatherCatV1.11B39,2013-01-19 08:46:00,
2013-01-18 22:51:00,66.2,55.7,29.92,West,277,0.0,4.0,69,0.00,,,0.06,WeatherCatV1.11B39,2013-01-19 08:51:00,
2013-01-18 22:56:00,66.3,55.8,29.92,NE,37,3.0,4.0,69,0.00,,,0.06,WeatherCatV1.11B39,2013-01-19 08:56:00,
2013-01-18 23:01:00,66.1,55.2,29.92,NNE,16,0.0,1.0,68,0.00,,,0.06,WeatherCatV1.11B39,2013-01-19 09:01:00,
2013-01-18 23:06:00,65.8,54.5,29.92,NNW,339,4.0,6.0,67,0.00,,,0.06,WeatherCatV1.11B39,2013-01-19 09:06:00,
2013-01-18 23:11:00,66.0,54.3,29.92,NNW,342,3.0,3.0,66,0.00,,,0.06,WeatherCatV1.11B39,2013-01-19 09:11:00,
2013-01-18 23:16:00,66.0,53.9,29.91,North,356,0.0,0.0,65,0.00,,,0.06,WeatherCatV1.11B39,2013-01-19 09:16:00,
2013-01-18 23:21:00,65.5,53.8,29.92,North,356,0.0,0.0,66,0.00,,,0.06,WeatherCatV1.11B39,2013-01-19 09:21:00,
2013-01-18 23:26:00,65.4,53.3,29.91,NE,34,2.0,5.0,65,0.00,,,0.06,WeatherCatV1.11B39,2013-01-19 09:26:00,
2013-01-18 23:31:00,65.3,53.6,29.91,NNE,27,0.0,1.0,66,0.00,,,0.06,WeatherCatV1.11B39,2013-01-19 09:31:00,
2013-01-18 23:36:00,65.0,54.2,29.92,North,3,0.0,0.0,68,0.00,,,0.06,WeatherCatV1.11B39,2013-01-19 09:36:00,
2013-01-18 23:41:00,64.6,54.6,29.91,West,276,0.0,0.0,70,0.00,,,0.06,WeatherCatV1.11B39,2013-01-19 09:41:00,
2013-01-18 23:45:00,64.3,54.7,29.91,West,278,0.0,0.0,71,0.00,,,0.00,WeatherCatV1.11B39,2013-01-19 09:45:00,
2013-01-18 23:46:00,64.1,54.5,29.91,NNW,340,0.0,0.0,71,0.00,,,0.06,WeatherCatV1.11B39,2013-01-19 09:46:00,
2013-01-18 23:50:00,64.0,54.4,29.91,NW,321,0.0,0.0,71,0.00,,,0.00,WeatherCatV1.11B39,2013-01-19 09:50:00,
2013-01-18 23:55:00,64.0,54.4,29.91,NW,321,0.0,0.0,71,0.00,,,0.00,WeatherCatV1.11B39,2013-01-19 09:55:00,